{"data":{"norad_id":68552,"epoch":"2026-05-25T00:00:27.877824Z","epoch_age_seconds":89095,"freshness":"FRESH","line1":"1 68552U 26070L   26145.00032266  .00008041  00000+0  24888-3 0  9993","line2":"2 68552  53.1601   7.7506 0001172  86.3507 273.7630 15.34397351  8242","mean_motion":15.34397351,"eccentricity":0.0001172,"inclination_deg":53.1601,"raan_deg":7.7506,"arg_perigee_deg":86.3507,"mean_anomaly_deg":273.763,"bstar":0.00024888,"rev_number":824,"period_min":93.847920101108,"perigee_km":461.90936620577,"apogee_km":463.5128610036,"semimajor_km":6840.8481136047,"source":"CELESTRAK","updated_at":"2026-05-25T13:38:21.961627Z"}}